This is the latest recevied weather packets stored in our database for station/object KY4EF. If no packets are shown the sender has not sent any weather packets the latest 10 day(s).
| Time | Temp. | Humidity | Pressure | Rain* | Wind** | Luminosity | Snow |
|---|---|---|---|---|---|---|---|
| 1777386352 | 13.33° C | 99% | 1021.2 hPa | 0 mm | - | 48 W/m² | - |
| 1777386050 | 13.33° C | 99% | 1019.8 hPa | 0 mm | - | 76 W/m² | - |
| 1777385746 | 13.33° C | 99% | 1020.5 hPa | 0 mm | - | 68 W/m² | - |
| 1777385443 | 12.78° C | 99% | 1020.8 hPa | 0 mm | - | 97 W/m² | - |
| 1777385139 | 12.78° C | 99% | 1020.5 hPa | 0 mm | - | 123 W/m² | - |
| 1777384835 | 12.78° C | 99% | 1020.6 hPa | 0 mm | - | 123 W/m² | - |
| 1777384533 | 12.78° C | 99% | 1018.8 hPa | 0 mm | - | 71 W/m² | - |
| 1777384228 | 13.33° C | 99% | 1021.4 hPa | 0 mm | - | 55 W/m² | - |
| 1777383923 | 12.78° C | 99% | 1020.8 hPa | 0 mm | - | 81 W/m² | - |
| 1777383619 | 13.33° C | 99% | 1021 hPa | 0 mm | - | 107 W/m² | - |
| 1777383316 | 13.33° C | 99% | 1021.1 hPa | 0 mm | - | 142 W/m² | - |
| 1777383013 | 12.78° C | 99% | 1020.8 hPa | 0 mm | - | 131 W/m² | - |
| 1777382709 | 12.22° C | 99% | 1020.8 hPa | 0 mm | - | 96 W/m² | - |
| 1777382404 | 12.22° C | 99% | 1020.9 hPa | 0 mm | - | 75 W/m² | - |
| 1777382101 | 12.22° C | 99% | 1020.9 hPa | 0 mm | - | 78 W/m² | - |
| 1777381798 | 12.22° C | 99% | 1021 hPa | 0 mm | - | 89 W/m² | - |
| 1777381497 | 11.67° C | 99% | 1021 hPa | 0 mm | - | 71 W/m² | - |
| 1777381193 | 12.22° C | 99% | 1021 hPa | 0 mm | - | 60 W/m² | - |
| 1777380890 | 11.67° C | 99% | 1020.6 hPa | 0 mm | - | 56 W/m² | - |
| 1777380588 | 11.67° C | 99% | 1020.1 hPa | 0 mm | - | 47 W/m² | - |
| 1777380283 | 11.67° C | 99% | 1020.1 hPa | 1.78 mm | - | 50 W/m² | - |
| 1777379980 | 11.67° C | 99% | 1019.8 hPa | 1.78 mm | - | 51 W/m² | - |
| 1777379676 | 11.67° C | 99% | 1020.6 hPa | 3.05 mm | - | 35 W/m² | - |
| 1777379371 | 11.67° C | 99% | 1020.6 hPa | 3.05 mm | - | 23 W/m² | - |
| 1777379067 | 11.67° C | 99% | 1020.8 hPa | 1.78 mm | - | 22 W/m² | - |
* Rain latest hour (hover to see other rain measurements)
** Current wind speed in m/s (hover to see current wind gust speed)